N71RW KPWK-KIAD

Flight info

Callsign N71RW
Flight time 1h 24m
Altitude 45000
Route MOBLE ADIME NESSS COLTZ SAVVI MGW GIBBZ5
Aircraft C750/M-SBDE3FGHRWXY/S

Departure

Time 2026-04-24 04:47
Airport Chicago Executive Airport (KPWK)

Arrival

Time 2026-04-24 06:11
Airport Washington Dulles International Airport (KIAD)
Time Latitude Longitude Altitude Speed Heading
2026-04-24 04:33 42.12059 -87.90787 646 ft 0 kts 189°
2026-04-24 04:43 42.12058 -87.90787 646 ft 0 kts 195°
2026-04-24 04:43 42.12064 -87.90811 646 ft 5 kts 343°
2026-04-24 04:43 42.12072 -87.90783 646 ft 7 kts 73°
2026-04-24 04:44 42.12130 -87.90764 650 ft 16 kts 339°
2026-04-24 04:44 42.12260 -87.90836 652 ft 17 kts 340°
2026-04-24 04:44 42.12297 -87.90818 652 ft 0 kts 54°
2026-04-24 04:46 42.12297 -87.90816 652 ft 2 kts 56°
2026-04-24 04:46 42.12318 -87.90758 653 ft 9 kts 65°
2026-04-24 04:46 42.12308 -87.90696 652 ft 6 kts 156°
2026-04-24 04:47 42.12289 -87.90688 654 ft 24 kts 160°
2026-04-24 04:47 42.11740 -87.90408 655 ft 132 kts 161°
2026-04-24 04:47 42.10845 -87.89985 1163 ft 146 kts 171°
2026-04-24 04:47 42.09813 -87.90354 1490 ft 165 kts 217°
2026-04-24 04:48 42.09416 -87.91756 1803 ft 165 kts 273°
2026-04-24 04:48 42.10060 -87.92882 2039 ft 151 kts 327°
2026-04-24 04:48 42.10907 -87.93500 2377 ft 138 kts 325°
2026-04-24 04:48 42.11782 -87.94186 2437 ft 155 kts 324°
2026-04-24 04:49 42.12790 -87.94932 2474 ft 174 kts 326°
2026-04-24 04:49 42.13893 -87.95548 2687 ft 173 kts 352°
2026-04-24 04:49 42.15073 -87.95030 2807 ft 191 kts 37°
2026-04-24 04:49 42.16096 -87.93779 3371 ft 207 kts 57°
2026-04-24 04:50 42.16654 -87.91939 3780 ft 221 kts 82°
2026-04-24 04:50 42.17001 -87.89844 4253 ft 236 kts 88°
2026-04-24 04:50 42.16671 -87.87763 4849 ft 223 kts 125°
2026-04-24 04:50 42.15877 -87.85996 5674 ft 223 kts 128°
2026-04-24 04:51 42.15225 -87.84042 6327 ft 234 kts 118°
2026-04-24 04:51 42.14718 -87.81938 7066 ft 238 kts 114°
2026-04-24 04:51 42.14194 -87.79816 7847 ft 240 kts 116°
2026-04-24 04:51 42.13619 -87.77663 8530 ft 255 kts 116°
2026-04-24 04:52 42.12988 -87.75328 9238 ft 271 kts 115°
2026-04-24 04:52 42.12373 -87.72964 10311 ft 271 kts 114°
2026-04-24 04:52 42.11741 -87.70541 11148 ft 278 kts 113°
2026-04-24 04:52 42.11084 -87.68063 12038 ft 282 kts 112°
2026-04-24 04:53 42.10419 -87.65564 12908 ft 286 kts 112°
2026-04-24 04:53 42.09750 -87.63031 13764 ft 289 kts 111°
2026-04-24 04:53 42.09074 -87.60475 14601 ft 293 kts 111°
2026-04-24 04:53 42.08425 -87.58035 15388 ft 296 kts 111°
2026-04-24 04:54 42.07726 -87.55404 16227 ft 299 kts 111°
2026-04-24 04:54 42.07021 -87.52749 17058 ft 303 kts 111°
2026-04-24 04:54 42.06305 -87.50059 17878 ft 307 kts 111°
2026-04-24 04:54 42.05583 -87.47348 18725 ft 310 kts 110°
2026-04-24 04:55 42.04850 -87.44600 19525 ft 315 kts 110°
2026-04-24 04:55 42.04103 -87.41809 20317 ft 319 kts 110°
2026-04-24 04:55 42.03346 -87.38974 21104 ft 324 kts 110°
2026-04-24 04:55 42.02576 -87.36089 21841 ft 330 kts 110°
2026-04-24 04:56 42.01792 -87.33171 22602 ft 334 kts 110°
2026-04-24 04:56 42.00998 -87.30214 23344 ft 339 kts 110°
2026-04-24 04:56 42.00190 -87.27208 24063 ft 344 kts 110°
2026-04-24 04:56 41.99384 -87.24204 24763 ft 348 kts 110°
2026-04-24 04:57 41.98553 -87.21124 25441 ft 353 kts 110°
2026-04-24 04:57 41.97709 -87.17999 26104 ft 358 kts 110°
2026-04-24 04:57 41.96856 -87.14833 26754 ft 363 kts 110°
2026-04-24 04:57 41.95987 -87.11620 27406 ft 367 kts 110°
2026-04-24 04:58 41.95111 -87.08377 28046 ft 371 kts 110°
2026-04-24 04:58 41.94563 -87.04969 28494 ft 378 kts 91°
2026-04-24 04:58 41.94611 -87.01430 29181 ft 379 kts 87°
2026-04-24 04:58 41.94705 -86.97871 29760 ft 384 kts 88°
2026-04-24 04:59 41.94763 -86.94263 30330 ft 388 kts 88°
2026-04-24 04:59 41.94798 -86.90609 30896 ft 393 kts 88°
2026-04-24 04:59 41.94849 -86.86928 31472 ft 396 kts 88°
2026-04-24 04:59 41.94914 -86.83209 32008 ft 400 kts 88°
2026-04-24 05:00 41.94970 -86.79458 32563 ft 403 kts 88°
2026-04-24 05:00 41.95018 -86.75673 33074 ft 407 kts 88°
2026-04-24 05:00 41.95067 -86.71909 33603 ft 409 kts 88°
2026-04-24 05:00 41.95120 -86.68066 34132 ft 412 kts 87°
2026-04-24 05:01 41.95174 -86.64191 34643 ft 416 kts 87°
2026-04-24 05:01 41.95221 -86.60288 35100 ft 420 kts 88°
2026-04-24 05:01 41.95266 -86.56356 35595 ft 423 kts 88°
2026-04-24 05:01 41.95314 -86.52387 36041 ft 427 kts 88°
2026-04-24 05:02 41.95363 -86.48374 36479 ft 431 kts 88°
2026-04-24 05:02 41.95408 -86.44320 36917 ft 435 kts 88°
2026-04-24 05:02 41.95451 -86.40252 37368 ft 438 kts 88°
2026-04-24 05:02 41.95493 -86.36146 37801 ft 440 kts 88°
2026-04-24 05:03 41.95535 -86.32068 38216 ft 442 kts 88°
2026-04-24 05:03 41.95576 -86.27924 38617 ft 445 kts 88°
2026-04-24 05:03 41.95518 -86.23748 38917 ft 450 kts 94°
2026-04-24 05:03 41.94979 -86.19602 39241 ft 454 kts 104°
2026-04-24 05:04 41.93917 -86.15598 39586 ft 456 kts 114°
2026-04-24 05:04 41.92457 -86.11805 39905 ft 458 kts 120°
2026-04-24 05:04 41.90847 -86.08110 40232 ft 461 kts 121°
2026-04-24 05:04 41.89294 -86.04308 40535 ft 465 kts 117°
2026-04-24 05:05 41.87946 -86.00350 40859 ft 468 kts 114°
2026-04-24 05:05 41.86625 -85.96350 41152 ft 471 kts 115°
2026-04-24 05:05 41.85159 -85.92397 41442 ft 474 kts 118°
2026-04-24 05:05 41.83635 -85.88466 41731 ft 477 kts 117°
2026-04-24 05:06 41.82168 -85.84450 42009 ft 481 kts 116°
2026-04-24 05:06 41.80737 -85.80377 42291 ft 484 kts 116°
2026-04-24 05:06 41.79259 -85.76313 42562 ft 487 kts 117°
2026-04-24 05:06 41.77752 -85.72299 42825 ft 490 kts 117°
2026-04-24 05:07 41.76230 -85.68194 43108 ft 492 kts 116°
2026-04-24 05:07 41.74734 -85.64070 43381 ft 494 kts 116°
2026-04-24 05:07 41.73219 -85.59922 43625 ft 497 kts 117°
2026-04-24 05:07 41.71674 -85.55764 43873 ft 500 kts 117°
2026-04-24 05:08 41.70120 -85.51585 44092 ft 503 kts 117°
2026-04-24 05:08 41.68565 -85.47367 44319 ft 506 kts 116°
2026-04-24 05:08 41.67005 -85.43135 44582 ft 508 kts 117°
2026-04-24 05:08 41.65429 -85.38895 44786 ft 509 kts 117°
2026-04-24 05:09 41.63863 -85.34692 44902 ft 503 kts 117°
2026-04-24 05:09 41.62294 -85.30477 44887 ft 509 kts 117°
2026-04-24 05:09 41.59142 -85.22015 44883 ft 494 kts 117°
2026-04-24 05:10 41.57658 -85.18048 44878 ft 474 kts 117°
2026-04-24 05:10 41.56211 -85.14185 44872 ft 455 kts 117°
2026-04-24 05:10 41.54822 -85.10475 44868 ft 438 kts 117°
2026-04-24 05:10 41.53481 -85.06902 44870 ft 423 kts 117°
2026-04-24 05:11 41.52182 -85.03444 44874 ft 412 kts 117°
2026-04-24 05:11 41.50897 -85.00030 44886 ft 414 kts 117°
2026-04-24 05:11 41.48254 -84.93017 44911 ft 431 kts 117°
2026-04-24 05:12 41.45531 -84.85807 44922 ft 436 kts 117°
2026-04-24 05:12 41.42809 -84.78618 44909 ft 433 kts 117°
2026-04-24 05:13 41.38731 -84.67884 44900 ft 433 kts 117°
2026-04-24 05:14 41.36045 -84.60771 44909 ft 432 kts 115°
2026-04-24 05:14 41.33430 -84.53563 44913 ft 432 kts 117°
2026-04-24 05:15 41.30805 -84.46373 44916 ft 432 kts 116°
2026-04-24 05:15 41.28188 -84.39173 44914 ft 433 kts 116°
2026-04-24 05:16 41.25551 -84.31976 44916 ft 433 kts 116°
2026-04-24 05:16 41.22915 -84.24771 44918 ft 433 kts 116°
2026-04-24 05:17 41.20273 -84.17588 44920 ft 432 kts 116°
2026-04-24 05:17 41.17635 -84.10421 44921 ft 432 kts 116°
2026-04-24 05:18 41.14972 -84.03213 44944 ft 442 kts 116°
2026-04-24 05:18 41.12230 -83.95802 44954 ft 458 kts 116°
2026-04-24 05:19 41.09391 -83.88153 44942 ft 461 kts 117°
2026-04-24 05:19 41.06566 -83.80561 44937 ft 457 kts 117°
2026-04-24 05:20 41.03750 -83.73015 44919 ft 457 kts 117°
2026-04-24 05:20 41.00918 -83.65442 44918 ft 458 kts 117°
2026-04-24 05:21 40.98100 -83.57929 44920 ft 458 kts 117°
2026-04-24 05:21 40.95243 -83.50332 44926 ft 458 kts 117°
2026-04-24 05:22 40.92401 -83.42793 44936 ft 469 kts 117°
2026-04-24 05:22 40.89429 -83.34930 44936 ft 486 kts 117°
2026-04-24 05:23 40.86378 -83.26881 44939 ft 491 kts 117°
2026-04-24 05:23 40.83322 -83.18838 44933 ft 488 kts 117°
2026-04-24 05:24 40.80273 -83.10838 44930 ft 488 kts 117°
2026-04-24 05:24 40.77210 -83.02822 44943 ft 489 kts 117°
2026-04-24 05:25 40.74161 -82.94868 44936 ft 489 kts 117°
2026-04-24 05:25 40.71083 -82.86855 44944 ft 490 kts 117°
2026-04-24 05:26 40.67990 -82.78830 44957 ft 499 kts 117°
2026-04-24 05:26 40.65336 -82.71958 44945 ft 510 kts 117°
2026-04-24 05:27 40.62106 -82.63615 44958 ft 510 kts 117°
2026-04-24 05:27 40.58888 -82.55331 44956 ft 508 kts 117°
2026-04-24 05:28 40.55648 -82.47011 44944 ft 511 kts 117°
2026-04-24 05:28 40.52406 -82.38707 44963 ft 510 kts 117°
2026-04-24 05:29 40.49161 -82.30411 44957 ft 510 kts 117°
2026-04-24 05:29 40.46073 -82.22014 44966 ft 511 kts 116°
2026-04-24 05:30 40.42945 -82.13621 44968 ft 511 kts 116°
2026-04-24 05:30 40.39900 -82.05370 44963 ft 501 kts 116°
2026-04-24 05:31 40.36851 -81.97211 44966 ft 497 kts 116°
2026-04-24 05:31 40.33802 -81.89023 44966 ft 501 kts 116°
2026-04-24 05:32 40.30732 -81.80834 44972 ft 500 kts 116°
2026-04-24 05:32 40.27659 -81.72638 44977 ft 500 kts 116°
2026-04-24 05:33 40.24600 -81.64513 44980 ft 501 kts 116°
2026-04-24 05:33 40.21517 -81.56342 44964 ft 500 kts 116°
2026-04-24 05:34 40.16919 -81.44113 44966 ft 499 kts 116°
2026-04-24 05:34 40.13833 -81.35958 44968 ft 500 kts 116°
2026-04-24 05:35 40.10748 -81.27804 44968 ft 501 kts 116°
2026-04-24 05:35 40.07650 -81.19655 44968 ft 501 kts 116°
2026-04-24 05:36 40.04546 -81.11504 44963 ft 500 kts 116°
2026-04-24 05:36 40.01438 -81.03367 44952 ft 500 kts 116°
2026-04-24 05:37 39.98327 -80.95244 44957 ft 500 kts 117°
2026-04-24 05:37 39.95213 -80.87135 44957 ft 500 kts 117°
2026-04-24 05:38 39.92118 -80.79099 44958 ft 496 kts 116°
2026-04-24 05:38 39.90590 -80.75137 44945 ft 483 kts 116°
2026-04-24 05:38 39.89097 -80.71276 44953 ft 474 kts 116°
2026-04-24 05:39 39.86117 -80.63577 44291 ft 486 kts 116°
2026-04-24 05:39 39.84585 -80.59625 43735 ft 489 kts 117°
2026-04-24 05:39 39.83048 -80.55669 43165 ft 489 kts 117°
2026-04-24 05:40 39.81513 -80.51722 42604 ft 488 kts 117°
2026-04-24 05:40 39.80006 -80.47851 42042 ft 485 kts 117°
2026-04-24 05:40 39.78463 -80.43896 41463 ft 482 kts 117°
2026-04-24 05:40 39.76969 -80.40068 40908 ft 480 kts 117°
2026-04-24 05:41 39.75460 -80.36209 40348 ft 478 kts 117°
2026-04-24 05:41 39.73952 -80.32355 39795 ft 478 kts 117°
2026-04-24 05:41 39.72444 -80.28508 39233 ft 478 kts 117°
2026-04-24 05:41 39.70930 -80.24650 38674 ft 479 kts 117°
2026-04-24 05:42 39.69410 -80.20783 38116 ft 486 kts 116°
2026-04-24 05:42 39.67846 -80.16807 37541 ft 501 kts 117°
2026-04-24 05:42 39.66254 -80.12764 36953 ft 503 kts 116°
2026-04-24 05:42 39.64660 -80.08725 36357 ft 501 kts 117°
2026-04-24 05:43 39.63074 -80.04713 35765 ft 498 kts 117°
2026-04-24 05:43 39.61493 -80.00716 35173 ft 500 kts 116°
2026-04-24 05:43 39.59903 -79.96696 34583 ft 504 kts 116°
2026-04-24 05:43 39.58296 -79.92644 33991 ft 508 kts 116°
2026-04-24 05:44 39.56671 -79.88552 33392 ft 511 kts 116°
2026-04-24 05:44 39.55343 -79.84291 32709 ft 510 kts 103°
2026-04-24 05:44 39.54552 -79.79891 32208 ft 508 kts 100°
2026-04-24 05:44 39.53783 -79.75421 31612 ft 511 kts 100°
2026-04-24 05:45 39.52977 -79.70936 31008 ft 511 kts 101°
2026-04-24 05:45 39.52145 -79.66452 30412 ft 512 kts 101°
2026-04-24 05:45 39.51331 -79.61979 29808 ft 508 kts 101°
2026-04-24 05:45 39.50543 -79.57559 29217 ft 502 kts 101°
2026-04-24 05:46 39.49760 -79.53214 28643 ft 497 kts 101°
2026-04-24 05:46 39.48968 -79.48887 28061 ft 491 kts 101°
2026-04-24 05:46 39.48196 -79.44601 27491 ft 486 kts 101°
2026-04-24 05:46 39.47453 -79.40424 26930 ft 481 kts 101°
2026-04-24 05:47 39.46692 -79.36223 26377 ft 477 kts 102°
2026-04-24 05:47 39.45904 -79.32010 25818 ft 473 kts 102°
2026-04-24 05:47 39.45136 -79.27887 25260 ft 469 kts 102°
2026-04-24 05:47 39.44391 -79.23815 24707 ft 459 kts 102°
2026-04-24 05:48 39.43670 -79.19897 24174 ft 439 kts 102°
2026-04-24 05:48 39.42978 -79.16166 23673 ft 425 kts 102°
2026-04-24 05:48 39.42335 -79.12477 23182 ft 418 kts 101°
2026-04-24 05:48 39.41720 -79.08815 22692 ft 415 kts 101°
2026-04-24 05:49 39.41085 -79.05180 22191 ft 415 kts 102°
2026-04-24 05:49 39.40431 -79.01544 21722 ft 415 kts 102°
2026-04-24 05:49 39.39789 -78.97925 21229 ft 411 kts 101°
2026-04-24 05:49 39.39161 -78.94327 20746 ft 408 kts 101°
2026-04-24 05:50 39.38533 -78.90760 20269 ft 406 kts 101°
2026-04-24 05:50 39.37898 -78.87228 19795 ft 403 kts 102°
2026-04-24 05:50 39.37261 -78.83721 19326 ft 399 kts 102°
2026-04-24 05:50 39.36644 -78.80285 18856 ft 396 kts 101°
2026-04-24 05:51 39.36027 -78.76832 18389 ft 393 kts 102°
2026-04-24 05:51 39.35410 -78.73409 17931 ft 390 kts 102°
2026-04-24 05:51 39.34795 -78.70015 17470 ft 387 kts 102°
2026-04-24 05:51 39.34176 -78.66601 17002 ft 384 kts 101°
2026-04-24 05:52 39.33571 -78.63257 16552 ft 382 kts 101°
2026-04-24 05:52 39.32974 -78.59969 16105 ft 378 kts 102°
2026-04-24 05:52 39.32374 -78.56672 15664 ft 376 kts 101°
2026-04-24 05:52 39.31783 -78.53404 15217 ft 374 kts 101°
2026-04-24 05:53 39.31200 -78.50148 14786 ft 371 kts 101°
2026-04-24 05:53 39.30619 -78.46911 14336 ft 368 kts 101°
2026-04-24 05:53 39.30042 -78.43707 13953 ft 364 kts 101°
2026-04-24 05:53 39.29465 -78.40521 13539 ft 364 kts 101°
2026-04-24 05:54 39.28831 -78.37379 13081 ft 361 kts 107°
2026-04-24 05:54 39.27595 -78.34563 12659 ft 358 kts 124°
2026-04-24 05:54 39.26173 -78.31932 12280 ft 358 kts 124°
2026-04-24 05:54 39.24785 -78.29313 11868 ft 342 kts 123°
2026-04-24 05:55 39.23539 -78.26898 11478 ft 315 kts 123°
2026-04-24 05:55 39.22322 -78.24563 11108 ft 308 kts 124°
2026-04-24 05:55 39.21127 -78.22302 10866 ft 309 kts 124°
2026-04-24 05:55 39.19910 -78.19999 10683 ft 313 kts 124°
2026-04-24 05:56 39.18689 -78.17674 10434 ft 314 kts 124°
2026-04-24 05:56 39.17464 -78.15347 10164 ft 314 kts 124°
2026-04-24 05:56 39.16254 -78.13051 9991 ft 301 kts 124°
2026-04-24 05:56 39.15069 -78.10806 9999 ft 308 kts 124°
2026-04-24 05:57 39.13860 -78.08516 9990 ft 311 kts 124°
2026-04-24 05:57 39.12636 -78.06196 9758 ft 313 kts 124°
2026-04-24 05:57 39.11433 -78.03917 9449 ft 312 kts 124°
2026-04-24 05:57 39.10215 -78.01616 9102 ft 310 kts 125°
2026-04-24 05:58 39.09003 -77.99324 8781 ft 308 kts 125°
2026-04-24 05:58 39.07797 -77.97052 8468 ft 308 kts 125°
2026-04-24 05:58 39.06593 -77.94788 8154 ft 306 kts 125°
2026-04-24 05:58 39.05395 -77.92532 7835 ft 303 kts 125°
2026-04-24 05:59 39.04210 -77.90301 7523 ft 302 kts 125°
2026-04-24 05:59 39.03036 -77.88094 7219 ft 299 kts 125°
2026-04-24 05:59 39.01865 -77.85896 7003 ft 295 kts 125°
2026-04-24 05:59 39.00701 -77.83708 6886 ft 298 kts 125°
2026-04-24 06:00 38.99534 -77.81509 6665 ft 297 kts 125°
2026-04-24 06:00 38.98390 -77.79359 6411 ft 294 kts 125°
2026-04-24 06:00 38.97240 -77.77191 6151 ft 294 kts 124°
2026-04-24 06:00 38.96449 -77.74807 5898 ft 289 kts 100°
2026-04-24 06:01 38.96191 -77.72255 6018 ft 292 kts 96°
2026-04-24 06:01 38.95927 -77.69657 6020 ft 292 kts 97°
2026-04-24 06:01 38.95642 -77.67069 6019 ft 293 kts 97°
2026-04-24 06:01 38.95280 -77.64500 5969 ft 293 kts 106°
2026-04-24 06:02 38.94198 -77.62320 5949 ft 291 kts 136°
2026-04-24 06:02 38.92514 -77.60950 5990 ft 287 kts 158°
2026-04-24 06:02 38.90673 -77.60011 6029 ft 288 kts 161°
2026-04-24 06:02 38.88802 -77.59087 6013 ft 289 kts 161°
2026-04-24 06:03 38.86942 -77.58133 6005 ft 287 kts 160°
2026-04-24 06:03 38.85048 -77.57349 5940 ft 285 kts 174°
2026-04-24 06:03 38.83096 -77.57395 6003 ft 281 kts 186°
2026-04-24 06:03 38.81145 -77.57523 6012 ft 282 kts 185°
2026-04-24 06:04 38.79183 -77.57607 6009 ft 282 kts 185°
2026-04-24 06:04 38.77223 -77.57687 6006 ft 282 kts 185°
2026-04-24 06:04 38.75266 -77.57782 6014 ft 282 kts 185°
2026-04-24 06:04 38.73309 -77.57880 5995 ft 282 kts 185°
2026-04-24 06:05 38.71377 -77.57968 5989 ft 281 kts 185°
2026-04-24 06:05 38.69469 -77.57370 5878 ft 290 kts 155°
2026-04-24 06:05 38.68032 -77.55610 5659 ft 282 kts 122°
2026-04-24 06:05 38.67368 -77.53268 5867 ft 286 kts 101°
2026-04-24 06:06 38.67180 -77.50712 6025 ft 294 kts 92°
2026-04-24 06:06 38.67091 -77.48101 5996 ft 290 kts 90°
2026-04-24 06:06 38.67488 -77.45591 5993 ft 283 kts 66°
2026-04-24 06:06 38.68603 -77.43706 5521 ft 256 kts 30°
2026-04-24 06:07 38.70468 -77.43431 4327 ft 287 kts 350°
2026-04-24 06:07 38.72277 -77.44008 4483 ft 254 kts 342°
2026-04-24 06:07 38.74086 -77.44375 4485 ft 277 kts 358°
2026-04-24 06:07 38.75961 -77.44003 3720 ft 270 kts
2026-04-24 06:08 38.77786 -77.43824 3160 ft 263 kts 358°
2026-04-24 06:08 38.79599 -77.43853 2807 ft 259 kts 358°
2026-04-24 06:08 38.81414 -77.43835 2458 ft 263 kts 359°
2026-04-24 06:08 38.83245 -77.43783 2109 ft 263 kts
2026-04-24 06:09 38.85020 -77.43760 1765 ft 240 kts
2026-04-24 06:09 38.86569 -77.43765 1443 ft 205 kts
2026-04-24 06:09 38.87840 -77.43719 1192 ft 163 kts
2026-04-24 06:09 38.88877 -77.43697 964 ft 137 kts
2026-04-24 06:10 38.89773 -77.43697 766 ft 123 kts 359°
2026-04-24 06:10 38.90596 -77.43697 563 ft 114 kts
2026-04-24 06:10 38.91348 -77.43682 431 ft 114 kts
2026-04-24 06:11 38.92910 -77.43644 317 ft 118 kts
2026-04-24 06:11 38.93755 -77.43630 309 ft 111 kts
2026-04-24 06:11 38.94344 -77.43627 308 ft 57 kts 351°
2026-04-24 06:11 38.94556 -77.43747 306 ft 17 kts 331°
2026-04-24 06:12 38.94665 -77.43825 302 ft 19 kts 332°
2026-04-24 06:12 38.94798 -77.43858 303 ft 20 kts 359°
2026-04-24 06:12 38.94950 -77.43860 299 ft 24 kts
2026-04-24 06:12 38.95115 -77.43855 298 ft 26 kts
2026-04-24 06:13 38.95300 -77.43850 302 ft 17 kts
2026-04-24 06:13 38.95352 -77.44007 300 ft 30 kts 271°
2026-04-24 06:13 38.95435 -77.44127 300 ft 0 kts 336°